Theta_e
316 316 316 316 316 316 316 316 317 316 316 316 316 316 315 315 316 317 316 316 314 314 314 314 315 315 318 329 327 326 325 328 331 332 334 338 338 337 335 335 334 334 336 334 334 334 335
317 317 317 317 317 316 317 316 316 316 316 316 316 315 315 315 316 317 316 316 314 314 314 314 315 315 327 326 327 327 327 332 334 336 337 337 337 335 335 335 335 336 335 335 335 335 336
316 316 317 317 317 317 316 317 317 316 316 316 316 316 315 315 315 316 316 317 314 314 314 315 315 320 325 327 325 326 326 329 334 336 338 336 336 334 335 335 335 335 335 336 335 335 335
317 316 315 315 316 317 317 316 316 317 316 316 316 315 314 315 315 316 316 317 313 314 314 315 315 324 326 324 324 325 326 330 333 334 335 334 335 334 334 335 334 334 336 337 336 333 336
318 317 317 316 316 315 316 316 316 316 316 316 316 315 313 314 315 316 317 315 313 313 314 315 321 325 325 324 323 324 325 330 333 333 334 333 333 334 334 334 334 336 337 337 335 335 332
317 318 317 317 317 316 315 314 316 316 316 316 315 315 313 314 316 316 315 313 314 314 316 324 323 329 326 324 323 322 325 329 334 334 334 334 335 334 335 335 338 341 340 335 335 335 332
316 317 317 317 318 318 317 315 313 315 315 316 316 314 315 315 316 315 314 318 323 324 326 322 322 323 324 323 323 323 327 329 332 334 334 335 334 334 334 335 335 337 334 333 334 334 332
315 316 316 317 317 318 318 318 314 313 314 316 316 315 315 315 316 313 316 326 328 327 328 325 323 323 324 325 324 326 328 331 332 333 333 335 334 334 334 336 334 332 332 333 333 333 333
315 316 316 317 317 318 318 318 318 314 313 315 316 315 315 316 314 313 319 322 325 327 330 329 323 323 323 325 325 327 330 330 332 333 333 335 333 333 334 335 331 331 333 332 332 334 333
316 316 316 317 316 317 318 318 318 316 313 314 316 315 316 315 314 320 320 321 323 326 334 328 322 323 324 324 325 329 329 330 332 333 333 333 334 332 334 332 332 332 333 332 330 330 332
322 317 316 317 317 317 318 318 319 318 313 313 316 316 317 314 319 326 324 324 326 327 341 326 324 326 326 324 327 329 328 329 331 331 332 331 332 332 331 331 331 332 332 332 331 330 332
322 321 317 317 316 316 319 318 318 319 314 313 316 318 318 319 316 321 326 327 327 331 337 326 327 326 325 326 327 327 327 328 330 330 330 330 331 332 330 330 332 331 330 331 330 330 332
322 322 317 316 316 316 318 318 319 319 315 314 316 319 318 323 327 324 324 328 330 332 329 328 328 326 326 327 326 326 326 326 327 328 329 329 331 330 330 330 332 330 330 331 334 332 336
321 322 319 317 316 317 318 318 319 319 315 314 318 321 322 321 326 325 327 330 333 330 331 328 326 326 326 327 326 325 325 326 328 329 328 328 327 329 329 330 331 331 331 332 335 337 341
321 321 321 317 316 318 318 317 318 319 315 315 322 326 323 323 323 326 331 331 334 334 330 328 327 326 326 327 327 326 326 326 327 329 328 329 329 330 330 330 331 332 333 335 333 334 337
320 321 321 320 317 318 319 318 318 319 315 316 320 331 331 326 323 327 331 329 330 333 332 328 327 327 327 327 327 326 326 327 328 329 329 329 331 331 331 331 332 334 336 336 333 343 347
320 321 320 321 318 318 319 318 317 317 314 319 324 335 328 325 326 329 330 330 331 333 334 333 329 329 329 328 327 328 327 328 328 328 328 329 335 341 338 334 334 334 335 335 335 343 356
321 321 320 321 320 318 318 317 317 314 312 321 328 338 327 325 329 329 329 329 324 332 333 334 334 333 330 331 329 328 329 329 330 328 327 329 333 342 338 335 334 335 337 337 340 349 343
321 321 321 321 320 319 318 317 317 313 312 316 331 340 326 325 328 328 328 329 330 330 332 332 333 333 334 330 330 329 330 331 330 328 328 328 330 337 344 339 336 336 335 336 336 336 339
322 321 321 320 320 319 318 316 317 313 311 316 329 340 329 327 328 330 331 328 331 330 331 332 335 334 333 334 331 330 331 331 329 329 336 332 331 333 344 347 344 342 337 336 334 334 334
321 321 320 320 320 319 318 316 317 314 312 316 331 344 340 334 327 330 332 332 330 330 330 331 333 337 337 337 332 331 331 332 331 338 332 332 334 336 343 342 342 338 339 333 333 334 334
321 321 320 320 320 319 317 316 316 314 312 321 335 343 337 341 328 329 328 331 330 328 331 331 335 336 335 338 336 332 333 333 334 332 332 333 337 340 343 337 339 337 335 334 335 333 334
320 319 320 321 321 319 317 316 315 312 313 327 330 330 334 337 338 328 328 329 331 330 331 333 334 335 338 336 334 336 336 338 337 333 333 333 333 339 341 341 340 344 341 337 337 335 333
319 319 321 321 321 319 317 316 315 311 311 317 323 329 334 341 341 337 331 329 329 331 333 340 336 342 340 338 336 338 339 339 340 339 336 336 347 347 346 347 351 342 340 340 340 337 336
318 318 320 321 321 319 316 315 314 311 311 314 320 327 333 339 341 340 338 336 334 337 338 340 338 341 338 339 339 340 342 344 342 339 341 338 340 346 348 351 346 344 341 340 342 336 334
318 318 318 321 320 319 316 315 313 311 311 313 321 325 328 334 342 339 339 335 335 337 337 339 338 338 337 339 339 342 341 345 345 343 340 341 338 338 347 348 343 340 340 335 336 334 338
317 318 318 319 320 317 316 315 313 311 310 312 318 324 327 333 334 334 337 337 338 340 341 338 339 338 337 340 341 342 347 342 351 348 348 345 346 341 344 345 343 339 337 336 338 350 343
317 317 318 319 319 316 316 314 312 310 310 312 321 326 326 330 331 332 332 334 336 339 344 342 340 339 338 339 338 347 353 350 348 342 344 345 349 344 341 341 346 341 341 341 349 345 346
317 317 318 318 318 316 315 313 311 310 310 311 319 326 324 326 328 326 327 328 330 332 335 339 340 342 341 340 345 344 349 345 347 347 340 343 346 343 339 344 345 340 341 344 343 344 346
Wind_Speed
19 19 19 19 19 18 18 18 18 19 20 20 20 20 20 20 19 16 15 13 10 9 8 7 8 11 8 10 19 8 3 8 10 12 15 16 18 15 11 2 5 7 1 7 8 7 3
20 20 20 20 20 19 19 18 19 20 20 20 21 21 22 20 19 17 15 12 9 8 7 6 6 8 5 15 14 8 6 9 14 16 18 18 14 11 12 1 4 5 5 6 4 2 2
22 23 22 22 21 21 20 20 20 20 21 21 21 23 23 21 19 17 13 9 7 7 6 5 5 5 11 17 7 6 10 13 16 17 16 16 17 8 14 10 4 5 12 9 10 3 2
22 23 24 24 24 23 21 21 21 22 23 23 23 24 24 22 19 16 10 6 6 6 5 5 5 5 8 18 24 13 13 15 16 15 16 15 7 12 15 14 4 11 14 9 7 3 6
21 23 24 24 26 26 24 23 22 23 23 24 24 25 25 22 19 12 6 3 4 5 5 5 5 10 15 11 16 16 16 16 15 15 13 8 7 14 18 13 12 11 9 4 3 7 2
20 22 24 24 26 27 27 25 24 24 25 25 26 25 26 21 16 8 3 6 4 5 5 6 14 8 20 15 17 21 20 19 14 14 12 11 9 14 16 14 7 2 16 9 3 6 2
20 21 22 24 25 27 29 29 26 26 26 26 27 27 26 20 13 4 6 2 5 6 16 13 16 14 8 21 15 21 21 19 17 13 14 15 13 15 19 15 7 2 8 8 7 7 3
21 21 22 24 25 27 28 30 29 27 28 29 28 29 26 19 10 9 5 6 10 9 6 23 21 20 16 5 8 13 19 14 14 16 16 16 15 19 17 3 5 7 9 13 8 8 5
21 22 23 24 26 27 28 30 30 29 29 30 31 31 26 16 7 10 15 20 12 11 8 15 22 14 12 12 14 19 19 18 15 16 17 18 19 14 15 1 7 9 13 15 6 1 8
21 22 24 25 26 27 29 31 32 31 31 32 34 33 23 9 5 11 17 17 15 10 6 16 20 15 17 14 15 21 21 18 14 17 18 17 18 12 3 9 10 15 6 10 3 8 9
21 22 24 25 27 28 29 31 33 33 33 34 37 32 19 8 13 9 6 7 5 7 6 19 19 11 13 18 17 17 20 18 17 14 15 11 17 8 11 13 12 15 6 9 12 12 15
21 21 23 24 27 29 30 32 34 34 34 35 39 30 14 3 11 16 10 4 7 6 7 14 13 15 17 20 14 17 17 18 14 11 13 16 12 10 9 11 11 6 12 13 15 12 12
21 21 22 24 26 29 31 33 35 36 36 36 40 25 10 8 8 9 9 7 6 10 20 18 18 19 19 13 14 14 17 18 14 11 14 13 14 9 12 14 13 9 13 11 11 11 2
21 21 22 24 26 29 31 34 36 37 38 41 36 15 6 20 7 7 9 8 9 15 13 18 16 19 17 17 16 15 17 15 19 17 11 12 13 16 12 13 13 15 16 10 7 8 11
22 20 22 23 25 29 32 34 36 37 38 43 26 6 8 10 17 9 8 11 8 10 11 14 18 18 17 16 10 14 17 18 18 18 17 11 12 15 17 13 12 16 15 17 11 19 6
22 20 21 23 25 28 32 34 35 37 38 36 14 12 16 11 14 11 8 17 19 21 3 11 14 14 15 18 12 16 17 17 17 18 17 19 9 15 14 12 11 14 13 15 8 4 4
22 20 20 22 24 27 30 33 34 37 39 18 5 6 16 13 14 7 11 18 22 4 7 7 11 11 15 13 15 12 13 13 18 17 14 17 5 10 19 9 14 10 12 13 7 6 5
21 20 20 21 23 25 29 31 32 35 39 16 8 5 11 17 8 9 13 23 12 8 4 14 10 13 12 12 13 15 14 16 15 16 15 17 10 17 16 14 10 13 6 11 7 8 10
21 22 21 20 21 24 27 29 29 31 30 15 5 4 9 16 9 12 18 24 13 11 14 12 8 11 13 11 9 12 12 10 12 15 12 14 12 3 9 13 5 9 13 2 7 10 6
21 21 21 20 20 22 25 27 27 28 27 12 5 4 5 8 13 18 15 20 9 12 18 12 8 12 10 12 9 10 13 7 6 11 6 5 14 12 10 3 19 13 10 4 8 8 12
20 19 19 19 19 21 23 25 26 26 25 6 5 4 7 7 13 16 18 13 18 17 15 13 9 13 10 10 12 13 16 15 13 8 6 9 14 5 19 24 24 18 15 8 5 5 6
20 20 20 20 19 19 21 23 25 25 24 7 4 3 5 17 14 18 14 11 12 16 16 15 11 15 15 15 13 14 13 11 13 14 14 14 12 3 3 3 11 16 17 13 8 10 8
20 19 19 19 18 18 19 21 22 23 18 7 15 12 8 13 18 12 14 16 13 16 14 17 15 16 17 17 16 7 7 13 10 17 14 17 15 12 1 10 4 17 21 12 9 2 3
24 21 20 18 18 17 17 18 18 19 14 8 14 15 7 12 15 7 16 18 17 19 15 14 15 7 16 20 3 11 15 17 14 12 13 13 9 4 4 9 9 7 12 14 21 10 9
21 23 21 19 18 17 15 16 16 17 16 11 14 10 7 10 12 17 13 5 5 4 8 12 5 7 5 11 7 9 3 9 15 24 31 5 5 5 4 4 13 30 6 7 23 5 5
20 21 21 19 17 16 14 14 14 15 16 12 14 14 8 7 2 15 18 2 7 11 10 16 3 7 5 8 10 6 7 3 2 3 5 18 9 4 3 6 4 15 24 3 7 2 11
19 19 19 18 18 14 13 13 13 14 14 11 13 9 9 8 14 8 10 9 12 8 10 14 9 8 6 5 8 6 5 5 6 7 7 5 8 9 8 5 8 4 14 8 3 5 9
19 20 19 18 17 14 13 12 12 12 12 9 16 8 8 7 15 14 11 9 12 9 7 11 5 5 6 8 9 4 8 4 5 4 4 3 5 7 6 10 1 10 11 4 5 5 9
17 17 18 17 16 14 12 11 11 10 9 7 10 3 7 6 10 22 21 19 11 2 6 4 7 13 4 5 5 6 6 1 12 4 9 7 14 12 6 5 3 2 4 7 9 5 3
Wind_Direction
18 15 12 9 7 4 1 358 355 352 349 346 343 340 337 331 325 316 307 296 278 269 270 281 295 308 318 240 249 173 185 205 214 226 244 256 267 276 296 140 115 268 268 192 160 181 149
19 15 12 10 7 4 1 357 354 349 348 345 341 340 336 330 323 316 306 294 271 259 260 268 287 305 263 257 252 154 212 197 218 216 239 250 272 348 296 313 277 20 276 287 203 254 322
19 17 15 11 8 4 1 357 354 349 346 344 340 337 335 330 322 313 303 289 264 250 245 253 274 315 265 247 278 269 229 231 219 233 240 242 262 279 270 272 173 224 267 267 205 109 317
16 15 13 11 7 2 359 356 353 350 346 344 340 338 335 331 322 312 302 281 246 235 227 238 254 275 260 254 246 250 244 233 226 233 255 286 235 278 280 285 178 237 249 254 113 66 129
10 10 10 9 6 3 358 354 351 348 344 344 341 338 337 331 324 315 297 232 208 215 215 222 265 217 257 221 225 232 223 228 214 227 233 282 276 257 254 248 226 213 215 303 169 134 288
5 5 5 5 5 3 2 355 351 347 345 344 344 338 340 329 327 309 193 173 198 195 223 242 261 252 245 220 211 211 217 227 218 221 220 221 234 240 243 238 263 51 289 153 197 119 20
1 1 0 360 0 1 1 358 353 348 345 344 342 341 337 330 326 257 129 154 201 204 221 214 175 220 134 217 187 200 203 211 234 216 218 210 226 230 238 229 106 292 327 315 264 116 274
356 356 356 356 356 357 356 356 354 349 346 344 342 340 335 327 316 212 205 240 333 334 237 230 262 219 278 128 172 203 192 201 212 220 215 222 222 239 248 91 320 263 243 262 236 148 196
352 352 351 352 352 353 353 352 351 349 346 343 343 339 334 322 299 214 220 240 320 324 272 208 212 230 223 233 211 200 191 204 209 225 211 234 210 234 254 171 227 242 255 265 353 138 222
347 349 348 347 349 349 349 349 348 348 345 343 341 337 332 318 283 221 228 251 262 291 280 161 196 217 215 198 232 193 191 203 215 221 230 224 258 193 239 241 245 250 268 355 302 261 270
340 343 346 346 345 347 346 346 345 346 345 343 339 334 325 237 306 250 356 222 233 262 272 147 179 191 184 207 194 189 185 217 235 219 240 206 248 175 242 249 225 265 352 309 296 274 261
333 335 340 344 344 344 343 344 343 343 343 341 339 330 317 256 242 251 313 236 237 235 230 169 144 172 172 218 172 177 180 224 237 238 245 265 205 264 235 242 254 306 286 278 249 241 257
329 330 335 338 341 343 343 343 342 341 340 339 336 322 258 232 244 222 237 238 225 244 138 148 165 177 181 202 170 167 189 203 218 225 219 225 262 216 260 238 234 238 250 258 240 226 312
325 327 330 334 337 339 341 342 341 339 339 338 333 307 273 228 263 261 238 223 248 235 201 151 168 175 190 191 170 183 188 202 221 229 201 207 216 235 197 240 255 226 246 266 285 291 222
317 324 325 330 334 337 339 340 340 339 339 340 335 274 235 241 220 254 237 223 239 271 151 162 172 180 199 193 179 182 204 212 208 233 250 211 214 208 200 212 219 250 251 266 270 257 227
311 317 322 326 330 335 337 339 340 338 337 341 325 272 245 186 181 215 236 245 267 298 31 169 174 189 200 183 217 183 198 217 229 210 252 277 284 154 191 218 240 267 283 296 268 3 61
305 310 320 322 327 332 336 338 341 340 338 341 275 248 134 167 178 226 234 239 244 5 328 317 212 178 229 192 194 216 218 218 211 229 228 256 278 330 304 197 236 209 242 259 311 127 101
298 302 312 319 323 329 335 339 341 346 342 0 286 270 150 168 198 226 234 246 285 276 182 280 312 302 213 219 195 230 211 220 200 226 204 239 270 178 243 220 222 277 353 303 284 38 222
292 298 304 313 319 326 332 337 339 347 360 336 284 288 180 195 220 224 232 255 258 233 255 219 250 276 292 244 195 220 217 232 176 214 211 227 255 227 347 317 201 254 273 211 215 254 281
285 292 298 307 314 321 328 333 335 342 352 346 282 251 151 215 241 258 271 232 248 240 274 270 274 257 233 269 193 223 233 127 161 233 8 281 266 274 155 242 303 303 317 323 314 317 349
278 285 293 299 307 316 323 329 332 337 344 330 247 341 22 250 225 240 250 262 227 241 211 250 249 268 273 254 259 197 247 168 179 190 244 237 247 281 141 178 224 273 271 280 253 308 308
268 279 287 293 300 310 317 325 331 335 339 228 296 38 299 291 222 221 251 274 260 224 241 211 239 248 235 256 241 241 225 218 185 185 219 223 241 138 78 144 313 227 248 250 271 263 257
267 273 280 284 291 302 312 322 330 337 351 296 359 343 274 284 289 209 225 225 253 271 239 247 223 240 253 229 235 342 64 28 323 195 200 226 231 237 117 168 28 305 324 290 282 71 0
263 263 273 278 285 294 305 315 325 333 351 311 297 315 281 279 280 288 241 219 221 233 255 295 246 302 41 313 160 56 42 21 16 16 315 234 95 49 43 22 292 310 34 338 297 314 283
267 258 262 269 276 284 296 308 317 323 327 313 291 285 296 288 310 326 276 273 291 243 278 276 29 0 271 284 244 166 117 39 279 220 225 141 84 113 123 106 306 284 324 209 261 345 307
264 261 254 261 265 272 284 299 310 316 322 320 285 285 274 292 91 307 311 175 249 227 245 254 41 272 304 257 247 206 250 74 77 302 345 347 132 200 128 141 223 264 250 89 45 291 345
263 259 249 252 256 260 273 289 302 309 317 315 279 291 282 278 257 316 351 336 331 327 274 196 177 211 223 239 260 265 80 20 22 8 332 10 335 222 189 191 212 202 310 86 252 57 31
259 254 243 246 246 251 264 280 294 302 314 321 279 263 279 297 296 294 320 327 331 12 17 332 185 237 202 243 254 89 39 325 28 222 143 18 3 261 235 272 168 352 354 335 81 91 31
254 242 237 239 238 244 254 272 287 294 304 303 279 225 267 264 294 313 293 286 287 7 316 355 300 297 359 215 74 60 135 207 223 242 155 180 197 253 348 19 165 129 48 31 16 63 97